Regional Weather Roundup
Issued by NWS

Home | Current Version | Previous Version | Text Only | Print | Product List | Glossary On
Versions: 1 2 3 4 5 6 7 8 9 10 11 12 13 14 15 16 17 18 19 20 21 22 23 24 25 26 27 28 29 30 31 32 33 34 35 36 37 38 39 40 41 42 43 44 45 46 47 48 49 50
000
ASUS43 KLSX 210607
RWRMO

WEATHER SUMMARY FOR MISSOURI
NATIONAL WEATHER SERVICE SPRINGFIELD MO
100 AM CDT THU AUG 21 2014

NOTE: "FAIR" INDICATES FEW OR NO CLOUDS BELOW 12,000 FEET WITH NO
       SIGNIFICANT WEATHER AND/OR OBSTRUCTIONS TO VISIBILITY.
       CURRENT SKY AND/OR WEATHER CONDITIONS ARE NOT AVAILABLE FOR
       CHILLICOTHE AND FARMINGTON.

MOZ001>031-035>038-043-044-053-054-210700-
...NORTHERN AND WESTERN MISSOURI...

CITY           SKY/WX    TMP DP  RH WIND       PRES   REMARKS
KANSAS CTY INT FAIR      80  68  66 S14       29.90S
6HR MIN TEMP:  79; 6HR MAX TEMP:  88;

KANSAS C DTWN  FAIR      83  67  58 S12G18    29.89S
6HR MIN TEMP:  82; 6HR MAX TEMP:  91;

LEE`S SUMMIT   FAIR      79  66  64 S10G17    29.92S
6HR MIN TEMP:  79; 6HR MAX TEMP:  89;

ST JOSEPH      FAIR      80  69  69 S9        29.87S
6HR MIN TEMP:  79; 6HR MAX TEMP:  87;

CHILLICOTHE      N/A     79  70  74 S5        29.91S
6HR MIN TEMP:  79; 6HR MAX TEMP:  88;

KIRKSVILLE     FAIR      77  71  82 S8        29.93R
6HR MIN TEMP:  76; 6HR MAX TEMP:  85;


$$
MOZ066>068-077>081-088>096-101>105-210700-
...SOUTHWEST MISSOURI...

CITY           SKY/WX    TMP DP  RH WIND       PRES   REMARKS
SPRINGFIELD    FAIR      77  66  68 S14       30.00R
6HR MIN TEMP:  77; 6HR MAX TEMP:  88;

JOPLIN         FAIR      79  67  66 S14       29.97R
6HR MIN TEMP:  79; 6HR MAX TEMP:  88;


$$
MOZ032>034-039>042-045>050-055>058-069>072-210700-
...CENTRAL MISSOURI...

CITY           SKY/WX    TMP DP  RH WIND       PRES   REMARKS
COLUMBIA       FAIR      73  70  90 SE6       29.97R
6HR MIN TEMP:  72; 6HR MAX TEMP:  79;

JEFFERSON CITY FAIR      73  70  90 SE5       29.96R
6HR MIN TEMP:  72; 6HR MAX TEMP:  80;

ROLLA          FAIR      74  64  71 S9        29.98S
6HR MIN TEMP:  73; 6HR MAX TEMP:  76;

SEDALIA        FAIR      78  65  63 S9        29.96R
6HR MIN TEMP:  78; 6HR MAX TEMP:  85;

WHITEMAN AFB   FAIR      74  62  67 S8        29.93S
OSAGE BEACH    FAIR      75  64  69 S5        29.98R

$$
MOZ051-052-059>065-210700-
...EAST CENTRAL MISSOURI...

CITY           SKY/WX    TMP DP  RH WIND       PRES   REMARKS
ST LOUIS INTL  FAIR      76  72  87 E6        29.98R
6HR MIN TEMP:  75; 6HR MAX TEMP:  86; 6HR PCP:  0.02;

SPIRIT OF STL  FAIR      72  71  97 CALM      29.95S
6HR MIN TEMP:  72; 6HR MAX TEMP:  85; 6HR PCP:  0.27;

ST CHARLES     FAIR      72  70  93 E7        29.95S
6HR MIN TEMP:  72; 6HR MAX TEMP:  82;


$$
MOZ072>076-082>087-097>100-106>115-210700-
...SOUTH CENTRAL AND SOUTHEAST MISSOURI...

CITY           SKY/WX    TMP DP  RH WIND       PRES   REMARKS
CAPE GIRARDEAU FAIR      80  73  79 S9        30.01R
6HR MIN TEMP:  80; 6HR MAX TEMP:  88;

FARMINGTON     FAIR      79  73  83 S8        30.03R
6HR MIN TEMP:  77; 6HR MAX TEMP:  81;

POPLAR BLUFF   FAIR      78  71  79 SW5       30.00R
6HR MIN TEMP:  78; 6HR MAX TEMP:  88;

WEST PLAINS    FAIR      78  65  63 SW8       30.05S
6HR MIN TEMP:  78; 6HR MAX TEMP:  88;


$$



USA.gov is the U.S. government's official web portal to all federal, state and local government web resources and services.